{"data":{"norad_id":38358,"epoch":"2026-09-20T06:00:02.000160Z","epoch_age_seconds":35952,"freshness":"FRESH","line1":"1 38358U 12031A   26263.25002315  .00000470  00000+0 -23390-4 0  9993","line2":"2 38358   6.0277  40.6240 0006516  81.2828 228.1938 15.09578066  1308","mean_motion":15.09578066,"eccentricity":0.0006516,"inclination_deg":6.0277,"raan_deg":40.624,"arg_perigee_deg":81.2828,"mean_anomaly_deg":228.1938,"bstar":-2.339e-5,"rev_number":130,"period_min":95.390893153054,"perigee_km":532.98211421339,"apogee_km":541.99455715085,"semimajor_km":6915.6253356821,"source":"CELESTRAK","updated_at":"2026-09-20T09:00:47.144927Z"}}